Marrum, Netherlands
Current Conditions -  °F | °C
As of 8:58 AM on Tuesday 21 Oct 2014 (Local Time) from EHLW Reporting Station
Heavy Rain Heavy Rain  
Wind Chill: 55°   Ceiling: 1000
Heat Index: 55°   Visibility: 4mi
Dew Point: 54°   Wind: 18mph
Humidity: 94%   Direction: 200°SSW
Pressure: 29.56"   Gusts: 30mph
Location:  53.32°N, 5.8°E
Report Text: EHLW 210658Z AUTO 20016G26KT 6000 +DZRA SCT008 BKN010 BKN013 FEW015CB 13/12 Q1001 GRN 20015G25KT 9999 FEW008 SCT010 BKN012 TEMPO 4000 DZRA SCT008 BKN010
Loading
Personal Weather Stations






























Interactive Weather Map
Tropical Storm Tracking
New forecast layout! Learn more

10-Day Weather Forecast

Advertisements
Track Severe Weather on mobile